Union Aéronautique de la Côte d'Azur

Union Aéronautique de la Côte d'Azur
UACA
Approuvé A.T.O. EASA – N°FR.ATO.0108

UNION des aéroclubs
Cannes “Ailes d’Azur”, Nice “Côte d’Azur”, Grasse “St Exupery”, ACCA “Francis Séverac”

Un cache-pitot se trouve à bord de chaque avion. Pensez à le mettre en place à la fin de chaque vol !

Avant de quitter l'avion, vérifiez que vous n'emportez pas la checklist

Un vol ne s'entreprend qu'avec un pare-brise parfaitement propre, il en va de votre sécurité, et de celle des autres

Après chaque vol, merci de mettre en place les pares-soleil!


Météo à Cannes:
METAR
LFMD 221800Z AUTO 01003KT 7000 NSC 10/08 Q1019 NOSIG =

TAF
LFMD 221400Z 2215/2315 16006KT 9999 SCT040 BECMG 2216/2218 36006KT CAVOK TEMPO 2221/2310 BKN030 BECMG 2310/2312 18008KT FEW030 =

SR / SS: 06:39 / 15:57 UTC (LFMD 2017-11-22)